When you browse on this site, cookies collect data to enhance your experience and personalize the content and advertising you see.
Visit our Privacy Policy to learn more. By continuing to use the site, you agree to this use of cookies and data.
  • In Hungary
  • List of Countries
  • For 7 days
  • Water Temperature
  • Satellite Maps
  • Weather Map
  • News
  • Weather Widgets
  • user-avatar
    Login

    Hourly Weather Miranda de Ebro

    Today, 20 January, Sunday

    Time Temperature Precipitation Wind Pressure Humidity
    00:00 +6°C° 0.3 mm 1 mps 712 mmHg 90%
    01:00 +6°C° 0.2 mm 1 mps 712 mmHg 91%
    02:00 +6°C° 0.2 mm 1 mps 713 mmHg 93%
    03:00 +6°C° 0.2 mm 1 mps 713 mmHg 94%
    04:00 +6°C° 0.2 mm 1 mps 714 mmHg 95%
    05:00 +6°C° 0.2 mm 1 mps 714 mmHg 95%
    06:00 +5°C° 0.2 mm 1 mps 715 mmHg 96%
    07:00 +6°C° 0.5 mm 1 mps 715 mmHg 94%
    08:00 +5°C° 0.5 mm 2 mps 716 mmHg 92%
    09:00 +6°C° 0.5 mm 2 mps 716 mmHg 90%
    10:00 +5°C° 0.1 mm 3 mps 716 mmHg 84%
    11:00 +7°C° 0.1 mm 3 mps 717 mmHg 79%
    12:00 +8°C° 0.1 mm 3 mps 717 mmHg 73%
    13:00 +7°C° 0.3 mm 4 mps 717 mmHg 73%
    14:00 +7°C° 0.3 mm 4 mps 717 mmHg 74%
    15:00 +7°C° 0.3 mm 5 mps 717 mmHg 75%
    16:00 +6°C° 0.1 mm 4 mps 717 mmHg 80%
    17:00 +5°C° 0.1 mm 3 mps 718 mmHg 85%
    18:00 +5°C° 0.1 mm 2 mps 718 mmHg 90%
    19:00 +5°C° 0.1 mm 2 mps 719 mmHg 90%
    20:00 +5°C° 0.1 mm 2 mps 719 mmHg 91%
    21:00 +5°C° 0.1 mm 2 mps 719 mmHg 92%
    22:00 +5°C° 0.1 mm 2 mps 720 mmHg 92%
    23:00 +5°C° 0.1 mm 2 mps 720 mmHg 92%

    Tomorrow, 21 January, Monday

    Time Temperature Precipitation Wind Pressure Humidity
    00:00 +5°C° 0.1 mm 2 mps 720 mmHg 92%
    01:00 +5°C° 0.2 mm 2 mps 720 mmHg 92%
    02:00 +5°C° 0.2 mm 2 mps 721 mmHg 92%
    03:00 +5°C° 0.2 mm 2 mps 721 mmHg 92%
    04:00 +4°C° 0.1 mm 2 mps 721 mmHg 92%
    05:00 +4°C° 0.1 mm 2 mps 721 mmHg 92%
    06:00 +4°C° 0.1 mm 2 mps 721 mmHg 92%
    07:00 +4°C° 0.1 mm 2 mps 721 mmHg 90%
    08:00 +4°C° 0.1 mm 3 mps 722 mmHg 88%
    09:00 +4°C° 0.1 mm 3 mps 722 mmHg 87%
    10:00 +4°C° 0.1 mm 3 mps 723 mmHg 82%
    11:00 +5°C° 0.1 mm 3 mps 723 mmHg 78%
    12:00 +5°C° 0.1 mm 4 mps 723 mmHg 74%
    13:00 +5°C° 0.1 mm 4 mps 722 mmHg 74%
    14:00 +5°C° 0.1 mm 3 mps 722 mmHg 74%
    15:00 +5°C° 0.1 mm 3 mps 722 mmHg 74%
    16:00 +4°C° 0.1 mm 3 mps 722 mmHg 79%
    17:00 +4°C° 0.1 mm 2 mps 722 mmHg 84%
    18:00 +4°C° 0.1 mm 1 mps 722 mmHg 88%
    19:00 +4°C° 0 mm 1 mps 722 mmHg 89%
    20:00 +3°C° 0 mm 1 mps 722 mmHg 90%
    21:00 +3°C° 0 mm 1 mps 722 mmHg 91%
    22:00 +3°C° 0 mm 1 mps 722 mmHg 90%
    23:00 +2°C° 0 mm 1 mps 721 mmHg 89%

    Day after tomorrow, 22 January, Tuesday

    Time Temperature Precipitation Wind Pressure Humidity
    00:00 +2°C° 0 mm 1 mps 721 mmHg 88%
    01:00 +1°C° 0 mm 2 mps 720 mmHg 87%
    02:00 +1°C° 0 mm 2 mps 720 mmHg 86%
    03:00 +2°C° 0 mm 2 mps 719 mmHg 85%
    04:00 +2°C° 0 mm 2 mps 718 mmHg 84%
    05:00 +1°C° 0 mm 3 mps 717 mmHg 83%
    06:00 +2°C° 0 mm 3 mps 716 mmHg 82%
    07:00 +2°C° 0.3 mm 3 mps 716 mmHg 81%
    08:00 +3°C° 0.3 mm 4 mps 716 mmHg 81%
    09:00 +2°C° 0.3 mm 5 mps 716 mmHg 80%
    10:00 +2°C° 0.5 mm 5 mps 716 mmHg 81%
    11:00 +2°C° 0.5 mm 5 mps 716 mmHg 82%
    12:00 +3°C° 0.5 mm 5 mps 716 mmHg 84%
    13:00 +3°C° 0.6 mm 5 mps 715 mmHg 84%
    14:00 +3°C° 0.6 mm 4 mps 715 mmHg 84%
    15:00 +3°C° 0.6 mm 4 mps 714 mmHg 85%
    16:00 +3°C° 1 mm 4 mps 714 mmHg 87%
    17:00 +3°C° 1 mm 4 mps 714 mmHg 89%
    18:00 +1°C° 1 mm 4 mps 714 mmHg 91%
    19:00 +1°C° 1.1 mm 4 mps 714 mmHg 92%
    20:00 +1°C° 1.1 mm 4 mps 714 mmHg 92%
    21:00 +2°C° 1.1 mm 3 mps 714 mmHg 93%
    22:00 +2°C° 1.3 mm 3 mps 714 mmHg 93%
    23:00 +1°C° 1.3 mm 3 mps 714 mmHg 94%

    23 January, Wednesday

    Time Temperature Precipitation Wind Pressure Humidity
    00:00 +1°C° 1.3 mm 3 mps 713 mmHg 94%
    01:00 0°C° 1.4 mm 4 mps 713 mmHg 94%
    02:00 0°C° 1.4 mm 4 mps 712 mmHg 94%
    03:00 0°C° 1.4 mm 4 mps 712 mmHg 94%
    04:00 0°C° 1.9 mm 4 mps 711 mmHg 95%
    05:00 +1°C° 1.9 mm 3 mps 711 mmHg 95%
    06:00 +1°C° 1.9 mm 3 mps 710 mmHg 96%
    07:00 +1°C° 2.6 mm 3 mps 710 mmHg 97%
    08:00 +2°C° 2.6 mm 3 mps 710 mmHg 98%
    09:00 +3°C° 2.6 mm 2 mps 710 mmHg 99%
    10:00 +2°C° 2 mm 3 mps 711 mmHg 99%
    11:00 +2°C° 2 mm 3 mps 711 mmHg 99%
    12:00 +1°C° 2 mm 3 mps 711 mmHg 99%
    13:00 +1°C° 0.9 mm 3 mps 711 mmHg 98%
    14:00 +1°C° 0.9 mm 3 mps 712 mmHg 97%
    15:00 +1°C° 0.9 mm 3 mps 712 mmHg 97%
    16:00 +1°C° 0.7 mm 3 mps 712 mmHg 96%
    17:00 +2°C° 0.7 mm 2 mps 713 mmHg 95%
    18:00 +1°C° 0.7 mm 2 mps 714 mmHg 94%
    19:00 +1°C° 0.3 mm 2 mps 714 mmHg 94%
    20:00 +1°C° 0.3 mm 2 mps 715 mmHg 94%
    21:00 +2°C° 0.3 mm 1 mps 715 mmHg 94%
    22:00 +1°C° 0.1 mm 1 mps 715 mmHg 94%
    23:00 +1°C° 0.1 mm 1 mps 715 mmHg 94%

    24 January, Thursday

    Time Temperature Precipitation Wind Pressure Humidity
    00:00 +1°C° 0.1 mm 1 mps 715 mmHg 94%
    01:00 +1°C° 0.5 mm 1 mps 715 mmHg 94%
    02:00 +1°C° 0.5 mm 1 mps 715 mmHg 94%
    03:00 +2°C° 0.5 mm 1 mps 714 mmHg 94%
    04:00 +2°C° 0.9 mm 1 mps 714 mmHg 94%
    05:00 +2°C° 0.9 mm 1 mps 714 mmHg 94%
    06:00 +2°C° 0.9 mm 1 mps 713 mmHg 94%
    07:00 +3°C° 1 mm 1 mps 714 mmHg 95%
    08:00 +3°C° 1 mm 1 mps 714 mmHg 95%
    09:00 +3°C° 1 mm 1 mps 714 mmHg 96%
    10:00 +3°C° 0.7 mm 1 mps 714 mmHg 97%
    11:00 +3°C° 0.7 mm 1 mps 713 mmHg 98%
    12:00 +3°C° 0.7 mm 1 mps 713 mmHg 99%
    13:00 +3°C° 0.1 mm 1 mps 713 mmHg 99%
    14:00 +3°C° 0.1 mm 1 mps 713 mmHg 98%
    15:00 +2°C° 0.1 mm 2 mps 713 mmHg 98%
    16:00 +2°C° 0.1 mm 2 mps 713 mmHg 98%
    17:00 +3°C° 0.1 mm 1 mps 714 mmHg 97%
    18:00 +2°C° 0.1 mm 1 mps 714 mmHg 97%
    19:00 +2°C° 0.3 mm 1 mps 715 mmHg 97%
    20:00 +2°C° 0.3 mm 1 mps 715 mmHg 96%
    21:00 +2°C° 0.3 mm 1 mps 715 mmHg 96%
    22:00 +2°C° 1 mm 1 mps 716 mmHg 96%
    23:00 +1°C° 1 mm 2 mps 716 mmHg 96%

    25 January, Friday

    Time Temperature Precipitation Wind Pressure Humidity
    00:00 +1°C° 1 mm 2 mps 716 mmHg 96%
    01:00 0°C° 0.3 mm 3 mps 716 mmHg 95%
    02:00 -1°C° 0.3 mm 3 mps 717 mmHg 94%
    03:00 -2°C° 0.3 mm 4 mps 717 mmHg 94%
    04:00 -2°C° 0 mm 3 mps 718 mmHg 94%
    05:00 -3°C° 0 mm 2 mps 718 mmHg 95%
    06:00 -4°C° 0 mm 2 mps 719 mmHg 95%
    07:00 -3°C° 0 mm 2 mps 720 mmHg 95%
    08:00 -2°C° 0 mm 2 mps 720 mmHg 94%
    09:00 -2°C° 0 mm 2 mps 721 mmHg 94%
    10:00 -1°C° 0 mm 2 mps 722 mmHg 94%
    11:00 0°C° 0 mm 3 mps 722 mmHg 95%
    12:00 0°C° 0 mm 3 mps 722 mmHg 96%
    13:00 0°C° 0 mm 3 mps 722 mmHg 95%
    14:00 0°C° 0 mm 3 mps 723 mmHg 95%
    15:00 +1°C° 0 mm 3 mps 723 mmHg 95%
    16:00 0°C° 0 mm 3 mps 723 mmHg 94%
    17:00 -1°C° 0 mm 2 mps 723 mmHg 94%
    18:00 -2°C° 0 mm 2 mps 724 mmHg 93%
    19:00 -3°C° 0 mm 2 mps 724 mmHg 94%
    20:00 -3°C° 0 mm 2 mps 725 mmHg 94%
    21:00 -3°C° 0 mm 2 mps 725 mmHg 95%
    22:00 -2°C° 0 mm 2 mps 725 mmHg 95%
    23:00 -2°C° 0 mm 2 mps 726 mmHg 95%
    Show more